Abakan, Russia

9:28 AM +07 on November 20, 2019 (GMT +0700)
Abakan

Weather History for UNAA - September, 2019

Change the Weather History Date:

Wednesday, September 25, 2019

  Actual Average (WUND) Record (WUND)
Temperature  
Mean Temperature 54 °F -  
Max Temperature 68 °F - - (-1)
Min Temperature 41 °F - - (-1)
Degree Days  
Heating Degree Days 10    
Growing Degree Days 4 (Base 50)    
Moisture  
Dew Point 43 °F    
Average Humidity 71    
Maximum Humidity 100    
Minimum Humidity 37    
Precipitation  
Precipitation 0.00 in - - ()
Sea Level Pressure  
Sea Level Pressure 30.02 in    
Wind  
Wind Speed 2 mph ()    
Max Wind Speed 9 mph    
Max Gust Speed -    
Visibility 4.6 miles    
Events      
Averages and records for this station are not official NWS values.
T = Trace of Precipitation, MM = Missing Value Source: Averaged Metar Reports

Daily Weather History Graph

Daily Weather History Graph

Search for Another Location

Airport or City:

Astronomy

Sep. 25, 2019 Rise Set
Actual Time 6:44 AM +07 6:47 PM +07
Civil Twilight 6:09 AM +07 7:22 PM +07
Nautical Twilight 5:27 AM +07 8:03 PM +07
Astronomical Twilight 4:44 AM +07 8:46 PM +07
Moon 1:10 AM +07 (9/25) 5:42 PM +07 (9/25)
Length of Visible Light 13h 12m
Length of Day
12h 02m
Waning Crescent, 18% of the Moon is Illuminated
Sep 25
Waning Crescent
Sep 29
New
Oct 5
First Quarter
Oct 14
Full
Oct 21
Last Quarter

Hourly Weather History & Observations

Time (+07) Temp. Windchill Dew Point Humidity Pressure Visibility Wind Dir Wind Speed Gust Speed Precip Events Conditions
12:00 AM 42.8 °F - 42.8 °F 100% 29.98 in - Calm Calm - N/A   Clear
12:30 AM 42.8 °F - 41.0 °F 93% 29.98 in 3.7 mi Calm Calm - N/A   Unknown
1:00 AM 44.6 °F - 42.8 °F 93% 29.98 in 4.3 mi Calm Calm - N/A   Unknown
1:30 AM 44.6 °F - 42.8 °F 93% 29.98 in 5.0 mi Calm Calm - N/A   Unknown
2:00 AM 46.4 °F - 44.6 °F 93% 29.98 in 5.6 mi Calm Calm - N/A   Unknown
2:30 AM 46.4 °F 43.0 °F 41.0 °F 81% 29.98 in - SSW 6.7 mph - N/A   Clear
3:00 AM 46.4 °F 44.4 °F 42.8 °F 87% 29.98 in - South 4.5 mph - N/A   Clear
3:30 AM 46.4 °F - 42.8 °F 87% 29.98 in - Calm Calm - N/A   Clear
4:00 AM 44.6 °F - 41.0 °F 87% 29.98 in - Calm Calm - N/A   Clear
4:30 AM 42.8 °F - 41.0 °F 93% 30.01 in - Calm Calm - N/A   Clear
5:00 AM 42.8 °F - 41.0 °F 93% 30.01 in - Calm Calm - N/A   Clear
6:00 AM 42.8 °F - 41.0 °F 93% 30.01 in - SSW 2.2 mph - N/A   Clear
6:30 AM 41.0 °F - 39.2 °F 93% 30.04 in - Calm Calm - N/A   Clear
7:00 AM 41.0 °F - 39.2 °F 93% 30.04 in - Calm Calm - N/A   Clear
7:30 AM 42.8 °F - 41.0 °F 93% 30.04 in - Calm Calm - N/A   Clear
8:00 AM 44.6 °F - 41.0 °F 87% 30.04 in - Calm Calm - N/A   Clear
9:00 AM 50.0 °F - 42.8 °F 76% 30.04 in - Calm Calm - N/A   Clear
9:30 AM 51.8 °F - 44.6 °F 76% 30.04 in - SSW 4.5 mph - N/A   Clear
10:00 AM 53.6 °F - 44.6 °F 72% 30.06 in - South 4.5 mph - N/A   Clear
10:30 AM 55.4 °F - 44.6 °F 67% 30.04 in - SSE 4.5 mph - N/A   Clear
11:00 AM 57.2 °F - 42.8 °F 59% 30.04 in - SSE 4.5 mph - N/A   Clear
11:30 AM 59.0 °F - 42.8 °F 55% 30.04 in - South 4.5 mph - N/A   Clear
12:00 PM 60.8 °F - 42.8 °F 52% 30.04 in - SSE 4.5 mph - N/A   Clear
12:30 PM 62.6 °F - 42.8 °F 48% 30.04 in - South 4.5 mph - N/A   Clear
1:00 PM 64.4 °F - 44.6 °F 49% 30.04 in - South 4.5 mph - N/A   Clear
1:30 PM 64.4 °F - 41.0 °F 42% 30.01 in - South 4.5 mph - N/A   Clear
2:00 PM 66.2 °F - 42.8 °F 43% 30.01 in - South 6.7 mph - N/A   Clear
2:30 PM 66.2 °F - 41.0 °F 40% 30.01 in - South 6.7 mph - N/A   Clear
3:00 PM 68.0 °F - 41.0 °F 37% 30.01 in - South 6.7 mph - N/A   Clear
3:30 PM 68.0 °F - 41.0 °F 37% 29.98 in - South 6.7 mph - N/A   Clear
4:00 PM 66.2 °F - 42.8 °F 43% 29.98 in - SSE 8.9 mph - N/A   Clear
4:30 PM 64.4 °F - 42.8 °F 45% 29.98 in - South 6.7 mph - N/A   Clear
5:00 PM 66.2 °F - 42.8 °F 43% 29.98 in - WSW 4.5 mph - N/A   Clear
5:30 PM 62.6 °F - 42.8 °F 48% 30.01 in - North 8.9 mph - N/A   Clear
6:00 PM 60.8 °F - 44.6 °F 55% 30.01 in - North 8.9 mph - N/A   Clear
6:30 PM 55.4 °F - 44.6 °F 67% 30.01 in - North 6.7 mph - N/A   Clear
7:00 PM 55.4 °F - 44.6 °F 67% 30.01 in - NNE 4.5 mph - N/A   Clear
7:30 PM 55.4 °F - 44.6 °F 67% 30.04 in - North 6.7 mph - N/A   Clear
8:00 PM 53.6 °F - 44.6 °F 72% 30.04 in - NE 2.2 mph - N/A   Clear
8:30 PM 51.8 °F - 42.8 °F 71% 30.04 in - NE 2.2 mph - N/A   Clear
9:00 PM 50.0 °F - 41.0 °F 71% 30.04 in - NE 4.5 mph - N/A   Clear
9:30 PM 50.0 °F - 42.8 °F 76% 30.04 in - NNE 4.5 mph - N/A   Clear
10:00 PM 50.0 °F - 42.8 °F 76% 30.04 in - North 4.5 mph - N/A   Clear
10:30 PM 50.0 °F - 41.0 °F 71% 30.04 in - NE 4.5 mph - N/A   Clear
11:00 PM 50.0 °F - 42.8 °F 76% 30.06 in - Variable 2.2 mph - N/A   Clear
11:30 PM 48.2 °F - 44.6 °F 87% 30.04 in - Calm Calm - N/A   Clear